Location: Anciles
(42.5833°N, 0.5167°E)
Time: 11:36:09
(UTC+00:00)

Cosmos 1954 Rocket - Pass Details

Date: 10 December 2019
Orbit: 751 x 782 km, 74.0° (Epoch: 25 January)

Event Time Altitude Azimuth Distance (km) Brightness Sun altitude
Rises 18:48:35 0° 196° (SSW) 3,186 7.5 -25.7°
Reaches altitude 10° 18:50:56 10° 195° (SSW) 2,266 6.7 -26.1°
Enters shadow 18:55:25 68° 181° (S) 812 4.0 -26.9°
